Tracking 29606 objects as of 18-Sep-2024
HD Live streaming from Space Station
objects crossing your sky now

COSMOS 2572

Track COSMOS 2572 now!
10-day predictions


NORAD ID: 58435
Int'l Code: 2023-182A
Perigee: 290.4 km
Apogee: 322.8 km
Inclination: 96.7 °
Period: 90.5 minutes
Semi major axis: 6677 km
RCS: Unknown
Launch date: November 25, 2023
Source: Commonwealth of Independent States (former USSR) (CIS)
Launch site: PLESETSK MISSILE AND SPACE COMPLEX (PKMTR)
Your satellite tracking list
Your tracking list is empty




NASA's NSSDC Master Catalog

Two Line Element Set (TLE):
1 58435U 23182A   24261.25783843  .00000897  18977-5  46585-5 0  9990
2 58435  96.6942   4.0095 0024234 220.6832 139.2634 15.91001845 47125
Source of the keplerian elements: AFSPC